Weather in Paniutyne

Ukraine / Kharkiv Region     48°56′26″N   36°16′29″E
temp.,
°C
wind,
m/s
gust,
m/s
humid.,
%
clouds,
%
prec.,
mm/h
press.,
hPa
HPBL,
m
14 may, fri
fri1400:00+13ese348887 0.0 101352
03:00+13ese4786100 0.0 1012131
06:00+13ese41095100 0.8 1011227
09:00+19sse5772100 0.8 1010448
12:00+23s5860100 0.0 1010927
15:00+25s575189 0.0 10101542
18:00+23sw4659100 0.0 1009272
21:00+17sw3369100 0.0 101041
15 may, sat
sat1500:00+14wsw34770 0.0 101146
03:00+13sw348291 0.0 101251
06:00+13sw34821 0.0 101378
09:00+19sw345943 0.0 1013516
12:00+22ssw454899 0.0 10141424
15:00+23ssw464534 0.0 10132263
18:00+23sw455310 0.0 1013573
21:00+17wsw2264100 0.0 101311
16 may, sun
sun1600:00+16wsw116699 0.0 101311
03:00+15ene22685 0.0 101311
06:00+14ne22748 0.0 101327
09:00+21ne345659 0.0 1013438
12:00+24ne4551100 0.0 10121343
15:00+26ene4548100 0.0 10101731
18:00+25ne465910 0.0 1009406
21:00+18ene4885100 0.3 1008136
17 may, mon
mon1700:00+17ene3478100 0.1 100849
03:00+16ene498179 0.1 1005153
06:00+16se41280100 0.0 1006279
09:00+20e7963100 0.0 1004308
12:00+23se5752100 0.0 1005871
15:00+27sse71047100 0.2 10041875
18:00+23s71170100 3.6 1004392
21:00+19s4789100 5.2 1005118
18 may, tue
tue1800:00+17ssw3895100 0.6 1006187
03:00+15wsw2598100 0.6 1007184
06:00+15s239721 0.0 1009114
09:00+20sw577611 0.0 1009795
12:00+23ssw56563 0.4 10091640
15:00+24ssw68467 0.9 10092487
18:00+21wsw476253 0.0 1009657
21:00+17s367612 0.0 1010102